Regional Weather Roundup
Issued by NWS Albany, NY

Home | Current Version | Previous Version | Text Only | Print | Product List | Glossary On
Versions: 1 2 3 4 5 6 7 8 9 10 11 12 13 14 15 16 17 18 19 20 21 22 23 24 25 26 27 28 29 30 31 32 33 34 35 36 37 38 39 40 41 42 43 44 45 46 47 48 49 50
591
ASUS41 KALY 120210
RWRALY

NEW YORK STATE HOURLY WEATHER ROUNDUP
NATIONAL WEATHER SERVICE ALBANY NY
900 PM EST MON DEC 11 2017

NOTE: "FAIR" INDICATES FEW OR NO CLOUDS BELOW 12,000 FEET WITH NO
SIGNIFICANT WEATHER AND/OR NO OBSTRUCTIONS TO VISIBILITY.

NYZ032-033-038>043-046>054-057>066-NYZ062>081-082-084-120300-
EAST


CITY           SKY/WX    TMP DP  RH WIND       PRES   REMARKS
ALBANY         CLOUDY    29  18  63 S3        29.99S
GLENS FALLS    CLOUDY    25  18  74 E6        29.97F WCI  18
POUGHKEEPSIE   CLOUDY    32  23  69 CALM      29.98F
NEWBURGH       MOCLDY    32  23  69 CALM      29.98F
MONTGOMERY     CLOUDY    31  25  78 CALM      29.96F
WHITE PLAINS   CLOUDY    34  21  59 CALM      29.97F
ISLIP          CLOUDY    32  26  78 CALM      30.00S
NEW YORK CITY  CLOUDY    40  21  46 SW5       29.99F
CENTRAL PARK   CLOUDY    38  22  52 CALM      30.01F
$$

NYZ005>009-017-018-044>046-055-056-120300-
CENTRAL


CITY           SKY/WX    TMP DP  RH WIND       PRES   REMARKS
FULTON         CLOUDY    24  18  77 VRB5      29.86F WCI  18
SYRACUSE       CLOUDY    24  20  84 E7        29.88F WCI  16
ROME           CLOUDY    24  18  77 E10       29.92F WCI  14
ELMIRA         CLOUDY    32  23  69 CALM      29.82F
BINGHAMTON     CLOUDY    27  19  72 S8        29.82F WCI  19
MONTICELLO     MOCLDY    28  19  69 SE6       29.91F WCI  22
$$

NYZ026>034-041>043-087-120300-
NORTH


CITY           SKY/WX    TMP DP  RH WIND       PRES   REMARKS
WATERTOWN      CLOUDY    21  15  78 NE6       29.90F WCI  13
FORT DRUM      NOT AVBL
OGDENSBURG     FAIR      19  10  69 E7        29.94F WCI   9
MASSENA        CLOUDY    16   7  67 E8        29.98F WCI   5
SARANAC LAKE   MOCLDY     7   5  91 N3        29.84F
PLATTSBURGH    PTCLDY    15   6  67 NW6       30.00F WCI   6
$$

NYZ001>004-010>016-019>021-085-120300-
WEST


CITY           SKY/WX    TMP DP  RH WIND       PRES   REMARKS
NIAGARA FALLS  CLOUDY    26  20  77 E5        29.78F WCI  20
BUFFALO        CLOUDY    27  23  85 SE7       29.77F WCI  19
DUNKIRK        LGT SNOW  29  25  85 S9        29.77F FOG     WCI  20
JAMESTOWN      LGT SNOW  25  24  96 S8        29.72F FOG     WCI  16
WELLSVILLE     CLOUDY    28  19  69 S9        29.74F WCI  19
ROCHESTER      CLOUDY    25  22  88 SE10      29.82F WCI  15
PENN YAN       CLOUDY    25  22  88 CALM      29.82F
$$

             KEY
       WCI = WIND CHILL INDEX
       VSB = VISIBILITY
       HX  = HEAT INDEX
$$




USA.gov is the U.S. government's official web portal to all federal, state and local government web resources and services.